Home   Weather   Ingolstadt   Past weeks

Flag for Germany Past Weather in Ingolstadt, Bavaria, Germany — Yesterday and Last 2 Weeks

Now
23 °F

Overcast.


Feels Like: 10 °F
Forecast: 5 / 19 °F
Wind: 15 mph from Northeast

Location: Ingolstadt Airport

Current Time: Jan 18, 2017 at 7:07:32 am

Latest Report: Jan 18, 2017 at 6:20 am


Visibility: N/A

Pressure: 30.54 "Hg

Humidity: 68%

Dew Point: 14 °F

Location of IngolstadtLocation

Past Weather in Ingolstadt — Graph

°F

Ingolstadt Temperature Yesterday

Maximum temperature yesterday: 27 °F (at 1:20 pm)
Minimum temperature yesterday: 10 °F (at 8:20 am)
Average temperature yesterday: 21 °F

High & Low Weather Summary for the Past Weeks

 TemperatureHumidityPressure
High41 °F (Jan 13, 3:20 am)100% (Jan 3, 5:20 am)30.69 "Hg (Jan 3, 5:20 am)
Low0 °F (Jan 7, 2:20 am)56% (Jan 13, 9:20 am)29.36 "Hg (Jan 13, 3:20 am)
Average27 °F83%30.11 "Hg
* Reported Jan 3 5:20 am — Jan 18 5:20 am, Ingolstadt, Weather by CustomWeather, © 2017

Note: Actual official high and low records may vary slightly from our data, if they occured in-between our weather recording intervals... More about our weather records

Advertising

Ingolstadt Weather History for the Previous 24 Hours

Scroll right to see more
 ConditionsComfort  
Time TempWeatherWind HumidityBarometerVisibility
5:20 am
Wed, Jan 18
25 °FOvercast.10 mph63%30.54 "HgN/A
4:20 am23 °FCold.13 mph68%30.54 "Hg5 mi
3:20 am23 °FCold.15 mph68%30.54 "Hg5 mi
2:20 am23 °FCold.13 mph74%30.54 "Hg4 mi
1:20 am23 °FCold.9 mph74%30.54 "Hg4 mi
12:20 am23 °FCold.10 mph74%30.54 "Hg5 mi
11:20 pm
Tue, Jan 17
23 °FCold.10 mph74%30.54 "Hg5 mi
10:20 pm23 °FCold.5 mph74%30.51 "Hg4 mi
9:20 pm23 °FCold.8 mph74%30.51 "Hg4 mi
8:20 pm21 °FCold.5 mph80%30.51 "Hg4 mi
7:20 pm21 °FCold.6 mph74%30.51 "HgN/A
6:20 pm23 °FCold.8 mph68%30.48 "HgN/A
5:20 pm25 °FPassing clouds.12 mph69%30.45 "HgN/A
4:20 pm27 °FPassing clouds.14 mph64%30.45 "HgN/A
3:20 pm27 °FPassing clouds.16 mph64%30.45 "HgN/A
2:20 pm27 °FPassing clouds.14 mph64%30.45 "HgN/A
1:20 pm27 °FPassing clouds.14 mph64%30.45 "HgN/A
12:20 pm25 °FPassing clouds.13 mph69%30.45 "HgN/A
11:20 am23 °FPassing clouds.13 mph74%30.45 "HgN/A
10:20 am21 °FPassing clouds.8 mph80%30.45 "HgN/A
10:03 am21 °FLight snow. Broken clouds.7 mph80%30.45 "Hg4 mi
9:40 am19 °FLight snow. Ice fog.5 mph86%30.42 "Hg2 mi
9:03 am16 °FLight snow. Broken clouds.3 mph93%30.42 "Hg3 mi
8:20 am10 °FScattered clouds.No wind92%30.42 "HgN/A
7:20 am12 °FPassing clouds.No wind92%30.39 "HgN/A
Weather by CustomWeather, © 2017

See weather overviewHow to use our weather pages